Weather History for KSBN - February, 2014

Change the Weather History Date:

Thursday, February 20, 2014

  Actual Average Record
Temperature  
Mean Temperature 41 °F 29 °F  
Max Temperature 49 °F 37 °F 65 °F (1983)
Min Temperature 32 °F 22 °F -12 °F (2015)
Degree Days  
Heating Degree Days 24 36  
Month to date heating degree days 936 767  
Since 1 July heating degree days 4826 4415  
Cooling Degree Days 0 0  
Month to date cooling degree days 0 0  
Year to date cooling degree days 0 0  
Moisture  
Dew Point 35 °F    
Average Humidity 84    
Maximum Humidity 92    
Minimum Humidity 75    
Precipitation  
Precipitation 1.64 in 0.07 in 1.64 in (2014)
Month to date precipitation 2.81 1.33  
Year to date precipitation 5.93 3.62  
Snow  
Snow 0.00 in 0.50 in 4.60 in (1963)
Month to date snowfall 11.4  
Since 1 July snowfall 54.5  
Snow Depth -    
Sea Level Pressure  
Sea Level Pressure 29.61 in    
Wind  
Wind Speed 14 mph (SE)    
Max Wind Speed 35 mph    
Max Gust Speed 43 mph    
Visibility 4 miles    
Events Fog , Rain , Thunderstorm    
T = Trace of Precipitation, MM = Missing Value Source: NWS Daily Summary

Daily Weather History Graph

Daily Weather History Graph

Search for Another Location

Airport or City:

Trip Planner

Search our weather history database for the weather conditions in past years. The results will help you decide how hot, cold, wet, or windy it might be!

Date:

Astronomy

Feb. 20, 2014 Rise Set
Actual Time 7:33 AM EST 6:24 PM EST
Civil Twilight 7:05 AM EST 6:53 PM EST
Nautical Twilight 6:33 AM EST 7:25 PM EST
Astronomical Twilight 6:00 AM EST 7:57 PM EST
Moon No Moon Rise 10:11 AM EST (2/20)
Length of Visible Light 11h 47m
Length of Day
10h 51m
Waning Gibbous, 71% of the Moon is Illuminated
Feb 20
Waning Gibbous
Feb 22
Last Quarter
Mar 1
New
Mar 8
First Quarter
Mar 16
Full

Hourly Weather History & Observations

Time (EST) Temp. Windchill Dew Point Humidity Pressure Visibility Wind Dir Wind Speed Gust Speed Precip Events Conditions
12:54 AM 33.1 °F 26.9 °F 28.0 °F 82% 30.01 in 7.0 mi ESE 6.9 mph - N/A   Partly Cloudy
1:54 AM 33.1 °F 26.1 °F 28.0 °F 82% 29.99 in 6.0 mi ESE 8.1 mph - N/A   Haze
2:54 AM 35.1 °F 27.9 °F 28.9 °F 78% 29.94 in 7.0 mi SE 9.2 mph - N/A   Clear
3:54 AM 35.1 °F 30.1 °F 28.0 °F 76% 29.90 in 8.0 mi East 5.8 mph - N/A   Clear
4:54 AM 35.1 °F 28.6 °F 28.0 °F 76% 29.89 in 8.0 mi ESE 8.1 mph - N/A   Clear
5:54 AM 36.0 °F 29.0 °F 28.0 °F 73% 29.85 in 10.0 mi SE 9.2 mph - N/A   Partly Cloudy
6:54 AM 36.0 °F 26.3 °F 28.9 °F 76% 29.75 in 6.0 mi East 16.1 mph 19.6 mph 0.01 in Rain Light Rain
7:18 AM 35.6 °F 27.1 °F 28.4 °F 75% 29.72 in 4.0 mi East 12.7 mph 23.0 mph 0.02 in Rain , Thunderstorm Rain
7:38 AM 35.6 °F 32.8 °F 30.2 °F 81% 29.80 in 2.0 mi West 3.5 mph - 0.10 in Rain , Thunderstorm Heavy Thunderstorms and Rain
7:39 AM 35.6 °F - 30.2 °F 81% 29.79 in 1.8 mi Calm Calm - 0.12 in Rain , Thunderstorm Heavy Thunderstorms and Rain
7:45 AM 35.6 °F 30.7 °F 30.2 °F 81% 29.76 in 1.8 mi East 5.8 mph - 0.16 in Rain Heavy Rain
7:52 AM 35.6 °F 28.6 °F 30.2 °F 81% 29.74 in 2.0 mi East 9.2 mph - 0.21 in Rain Heavy Rain
7:54 AM 35.1 °F 27.4 °F 30.9 °F 85% 29.76 in 2.0 mi East 10.4 mph - 0.24 in Rain Heavy Rain
8:03 AM 35.6 °F 27.5 °F 32.0 °F 87% 29.73 in 2.0 mi East 11.5 mph - 0.06 in Rain , Thunderstorm Heavy Thunderstorms and Rain
8:32 AM 35.6 °F 29.2 °F 32.0 °F 87% 29.79 in 1.8 mi NE 8.1 mph - 0.35 in Rain , Thunderstorm Heavy Thunderstorms and Rain
8:54 AM 36.0 °F 26.3 °F 33.1 °F 89% 29.76 in 1.8 mi East 16.1 mph - 0.52 in Rain , Thunderstorm Heavy Thunderstorms and Rain
9:15 AM 35.6 °F 26.2 °F 33.8 °F 93% 29.71 in 2.5 mi East 15.0 mph 20.7 mph 0.12 in Rain Light Rain
9:34 AM 35.6 °F 27.1 °F 33.8 °F 93% 29.71 in 2.5 mi East 12.7 mph - 0.16 in Rain Light Rain
9:52 AM 35.6 °F 26.2 °F 33.8 °F 93% 29.71 in 2.5 mi East 15.0 mph - 0.20 in Rain Light Rain
9:54 AM 36.0 °F 27.1 °F 34.0 °F 93% 29.73 in 2.5 mi East 13.8 mph 20.7 mph 0.21 in Rain Light Rain
10:35 AM 35.6 °F 27.5 °F 33.8 °F 93% 29.70 in 4.0 mi ESE 11.5 mph - 0.09 in Rain Light Rain
10:51 AM 35.6 °F 26.6 °F 33.8 °F 93% 29.67 in 1.8 mi East 13.8 mph - 0.10 in Rain Light Rain
10:52 AM 36.0 °F 27.1 °F 34.0 °F 93% 29.69 in 1.8 mi East 13.8 mph - 0.11 in Rain Light Rain
11:02 AM 35.6 °F 26.6 °F 33.8 °F 93% 29.67 in 2.5 mi East 13.8 mph - 0.01 in Rain Rain
11:17 AM 35.6 °F 25.5 °F 33.8 °F 93% 29.65 in 3.0 mi ESE 17.3 mph 25.3 mph 0.03 in Rain Light Rain
11:54 AM 37.0 °F 28.5 °F 34.0 °F 89% 29.65 in 4.0 mi ESE 13.8 mph - 0.03 in   Overcast
12:46 PM 37.4 °F 28.5 °F 33.8 °F 87% 29.60 in 4.0 mi ESE 15.0 mph - 0.00 in   Overcast
12:54 PM 37.0 °F 28.5 °F 34.0 °F 89% 29.62 in 3.0 mi ESE 13.8 mph - 0.00 in   Overcast
1:06 PM 37.4 °F 28.9 °F 33.8 °F 87% 29.59 in 2.5 mi SE 13.8 mph - N/A   Overcast
2:08 PM 37.4 °F 28.9 °F 35.6 °F 93% 29.54 in 1.8 mi ESE 13.8 mph - 0.00 in Rain Light Rain
2:54 PM 37.0 °F 28.9 °F 35.1 °F 93% 29.53 in 1.5 mi ESE 12.7 mph - 0.04 in Rain Light Rain
3:06 PM 37.4 °F 28.9 °F 35.6 °F 93% 29.50 in 2.0 mi ESE 13.8 mph - 0.00 in Rain Light Rain
3:16 PM 37.4 °F 28.5 °F 35.6 °F 93% 29.50 in 1.5 mi ESE 15.0 mph - 0.01 in Rain Light Rain
4:54 PM 39.0 °F 30.6 °F 37.9 °F 96% 29.46 in 1.0 mi ESE 15.0 mph 24.2 mph 0.01 in   Overcast
5:01 PM 39.2 °F 32.5 °F 37.4 °F 93% 29.43 in 0.5 mi SE 10.4 mph 23.0 mph N/A Fog Fog
6:09 PM 42.8 °F 36.2 °F 41.0 °F 93% 29.39 in 0.2 mi SE 12.7 mph - N/A Fog Fog
6:54 PM 44.1 °F 37.7 °F 43.0 °F 96% 29.38 in 0.2 mi SE 12.7 mph 23.0 mph N/A Fog Fog
7:39 PM 46.4 °F 41.1 °F 44.6 °F 93% 29.35 in 0.5 mi SSE 11.5 mph - 0.03 in Fog , Rain Heavy Rain
7:54 PM 46.0 °F 39.6 °F 44.1 °F 93% 29.36 in 0.5 mi SSE 15.0 mph 25.3 mph 0.12 in Fog , Rain , Thunderstorm Thunderstorms and Rain
8:04 PM 46.4 °F 39.8 °F 46.4 °F 100% 29.34 in 1.0 mi SSE 16.1 mph 24.2 mph 0.05 in Rain , Thunderstorm Heavy Thunderstorms and Rain
8:17 PM 46.4 °F 41.1 °F 46.4 °F 100% 29.33 in 1.8 mi SSE 11.5 mph - 0.15 in Rain Heavy Rain
8:21 PM 46.4 °F 41.5 °F 46.4 °F 100% 29.33 in 2.0 mi SSE 10.4 mph - 0.17 in Rain , Thunderstorm Heavy Rain
8:33 PM 48.2 °F - 46.4 °F 93% 29.34 in 0.8 mi Variable 6.9 mph - 0.33 in Rain , Thunderstorm Rain
8:43 PM 48.2 °F - 48.2 °F 100% 29.33 in 1.5 mi South 10.4 mph 20.7 mph 0.33 in Rain , Thunderstorm Light Rain
8:54 PM 48.0 °F - 48.0 °F 100% 29.35 in 3.0 mi South 13.8 mph 23.0 mph 0.33 in   Overcast
8:56 PM 48.2 °F - 46.4 °F 93% 29.34 in 3.0 mi South 15.0 mph 23.0 mph N/A   Overcast
9:54 PM 43.0 °F 32.9 °F 36.0 °F 76% 29.41 in 10.0 mi WSW 27.6 mph 41.4 mph 0.01 in   Mostly Cloudy
10:02 PM 42.8 °F 32.5 °F 35.6 °F 76% 29.39 in 10.0 mi WSW 28.8 mph 41.4 mph N/A   Mostly Cloudy
10:54 PM 37.9 °F 27.1 °F 30.9 °F 76% 29.45 in 10.0 mi SW 23.0 mph 38.0 mph N/A   Overcast
11:54 PM 37.0 °F 26.7 °F 28.9 °F 73% 29.46 in 10.0 mi SW 19.6 mph 29.9 mph N/A   Overcast